Observations

BIA Manual Entry


Date Temp Humidity Rainfall Dew Point Wind Direction Wind Speed Wind Pressure Condition Visibility
2025-02-28 00:11:21 28 89 26 040 13.3 1011 Light Haze 08KM
2025-02-27 23:17:31 28 89 26 040 7.6 1011 Light Haze 08KM0
2025-02-27 22:02:07 28 87 26 040 7.6 1011 Light Haze 08KM
2025-02-27 20:59:03 28 85 25 020 7.6 1010 Light Haze 8 KM
2025-02-27 20:01:53 28 85 26 030 13.3 1010 Light Haze 8 KM
2025-02-27 19:06:10 28 84 25 030 19.0 1009 Partly Cloudy (Night) 9 KM
2025-02-27 17:59:11 29 84 25 020 26.6 1009 Distant showers 9 KM
2025-02-27 15:59:49 30 74 0.0 25 020 20.9 1008 Partly Cloudy (Day) 15 KM
2025-02-27 14:59:11 30 70 24 010 20.9 1009 Partly Cloudy (Day) 20 KM
2025-02-27 14:01:55 30 73 0.0 25 350 17.1 1010 Partly Cloudy (Day) 20 KM
2025-02-27 13:05:21 31 69 25 350 19.0 1011 Partly Cloudy (Day) 20KM
2025-02-27 12:05:53 31 62 23 020 17.1 1012 Partly Cloudy (Day) 20KM
2025-02-27 11:00:13 31 64 23 030 17.1 1013 Partly Cloudy (Day) 20KM
2025-02-27 10:00:38 30 72 24 070 11.4 1013 Partly Cloudy (Day) 20KM
2025-02-27 08:58:09 28 82 24 040 9.5 1013 Partly Cloudy (Day) 15KM
2025-02-27 07:58:21 26 90 25 080 3.8 1013 Partly Cloudy (Day) 15 KM
2025-02-27 07:00:18 25 97 24 060 1.9 1012 Mist 10 KM
2025-02-27 05:59:18 25 96 24 080 3.2 1011 Mist 10 KM
2025-02-27 05:00:56 25 95 24 040 3.8 1011 Mist 10 KM
2025-02-27 03:01:18 25 94 0.00 25 260 1.9 1012 Partly Cloudy (Day) 10 km
2025-02-27 02:07:54 25 95 25 070 3.8 1012 Partly Cloudy (Night) 10 KM
2025-02-27 00:59:52 26 92 25 040 3.8 1013 Cloudy 10 KM
2025-02-27 00:01:02 26 92 25 060 3.8 1014 Partly Cloudy (Night) 10 KM
2025-02-26 23:02:00 27 89 25 030 9.5 1014 Lightning 10 KM
2025-02-26 22:01:16 27 87 25 060 11.4 1014 Lightning 10 KM